When you browse on this site, cookies collect data to enhance your experience and personalize the content and advertising you see.
Visit our Privacy Policy to learn more. By continuing to use the site, you agree to this use of cookies and data.

Hourly Weather Nampula

Today, 20 September, Sunday

Time Temperature Precipitation Wind Pressure Humidity
00:00 +23°C° 0 mm 1 mps 607 mmHg 46%
01:00 +20°C° 0 mm 0 mps 606 mmHg 47%
02:00 +19°C° 0 mm 0 mps 606 mmHg 48%
03:00 +19°C° 0 mm 0 mps 605 mmHg 49%
04:00 +18°C° 0 mm 0 mps 605 mmHg 49%
05:00 +18°C° 0 mm 0 mps 605 mmHg 49%
06:00 +18°C° 0 mm 0 mps 605 mmHg 48%
07:00 +20°C° 0 mm 0 mps 607 mmHg 40%
08:00 +24°C° 0 mm 1 mps 608 mmHg 32%
09:00 +26°C° 0 mm 1 mps 609 mmHg 24%
10:00 +27°C° 0 mm 2 mps 609 mmHg 23%
11:00 +28°C° 0 mm 4 mps 609 mmHg 21%
12:00 +29°C° 0 mm 5 mps 610 mmHg 19%
13:00 +29°C° 0 mm 5 mps 609 mmHg 20%
14:00 +29°C° 0 mm 6 mps 608 mmHg 20%
15:00 +29°C° 0 mm 6 mps 608 mmHg 21%
16:00 +29°C° 0 mm 5 mps 608 mmHg 22%
17:00 +28°C° 0 mm 5 mps 607 mmHg 24%
18:00 +27°C° 0 mm 5 mps 607 mmHg 25%
19:00 +26°C° 0 mm 4 mps 607 mmHg 27%
20:00 +25°C° 0 mm 3 mps 607 mmHg 30%
21:00 +24°C° 0 mm 2 mps 607 mmHg 32%
22:00 +23°C° 0 mm 1 mps 607 mmHg 31%
23:00 +23°C° 0 mm 1 mps 607 mmHg 30%

Tomorrow, 21 September, Monday

Time Temperature Precipitation Wind Pressure Humidity
00:00 +22°C° 0 mm 1 mps 607 mmHg 30%
01:00 +22°C° 0 mm 1 mps 607 mmHg 33%
02:00 +21°C° 0 mm 1 mps 606 mmHg 37%
03:00 +21°C° 0 mm 1 mps 606 mmHg 40%
04:00 +20°C° 0 mm 1 mps 606 mmHg 43%
05:00 +20°C° 0 mm 1 mps 606 mmHg 45%
06:00 +19°C° 0 mm 1 mps 606 mmHg 48%
07:00 +21°C° 0 mm 1 mps 607 mmHg 41%
08:00 +23°C° 0 mm 1 mps 608 mmHg 35%
09:00 +25°C° 0 mm 1 mps 610 mmHg 28%
10:00 +27°C° 0 mm 2 mps 610 mmHg 24%
11:00 +28°C° 0 mm 4 mps 610 mmHg 21%
12:00 +30°C° 0 mm 5 mps 610 mmHg 17%
13:00 +30°C° 0 mm 6 mps 610 mmHg 18%
14:00 +30°C° 0 mm 6 mps 610 mmHg 19%
15:00 +30°C° 0 mm 6 mps 609 mmHg 20%
16:00 +29°C° 0 mm 6 mps 609 mmHg 22%
17:00 +27°C° 0 mm 6 mps 608 mmHg 24%
18:00 +26°C° 0 mm 5 mps 608 mmHg 26%
19:00 +25°C° 0 mm 4 mps 608 mmHg 29%
20:00 +25°C° 0 mm 3 mps 608 mmHg 32%
21:00 +24°C° 0 mm 2 mps 608 mmHg 35%
22:00 +23°C° 0 mm 1 mps 608 mmHg 34%
23:00 +23°C° 0 mm 1 mps 608 mmHg 33%

Day after tomorrow, 22 September, Tuesday

Time Temperature Precipitation Wind Pressure Humidity
00:00 +22°C° 0 mm 1 mps 607 mmHg 32%
01:00 +21°C° 0 mm 1 mps 607 mmHg 33%
02:00 +19°C° 0 mm 0 mps 607 mmHg 35%
03:00 +18°C° 0 mm 0 mps 606 mmHg 36%
04:00 +18°C° 0 mm 0 mps 606 mmHg 37%
05:00 +17°C° 0 mm 0 mps 606 mmHg 38%
06:00 +17°C° 0 mm 0 mps 606 mmHg 38%
07:00 +21°C° 0 mm 1 mps 608 mmHg 32%
08:00 +24°C° 0 mm 1 mps 609 mmHg 25%
09:00 +26°C° 0 mm 1 mps 610 mmHg 19%
10:00 +27°C° 0 mm 2 mps 610 mmHg 17%
11:00 +29°C° 0 mm 4 mps 611 mmHg 15%
12:00 +30°C° 0 mm 6 mps 611 mmHg 13%
13:00 +30°C° 0 mm 6 mps 610 mmHg 14%
14:00 +30°C° 0 mm 6 mps 610 mmHg 15%
15:00 +30°C° 0 mm 6 mps 609 mmHg 16%
16:00 +29°C° 0 mm 6 mps 609 mmHg 18%
17:00 +28°C° 0 mm 5 mps 608 mmHg 20%
18:00 +27°C° 0 mm 5 mps 608 mmHg 22%
19:00 +26°C° 0 mm 4 mps 608 mmHg 25%
20:00 +25°C° 0 mm 3 mps 608 mmHg 27%
21:00 +24°C° 0 mm 1 mps 608 mmHg 30%
22:00 +24°C° 0 mm 1 mps 608 mmHg 28%
23:00 +23°C° 0 mm 1 mps 607 mmHg 27%

23 September, Wednesday

Time Temperature Precipitation Wind Pressure Humidity
00:00 +23°C° 0 mm 1 mps 607 mmHg 26%
01:00 +22°C° 0 mm 1 mps 607 mmHg 28%
02:00 +21°C° 0 mm 1 mps 606 mmHg 29%
03:00 +21°C° 0 mm 1 mps 606 mmHg 31%
04:00 +20°C° 0 mm 1 mps 606 mmHg 30%
05:00 +20°C° 0 mm 1 mps 606 mmHg 30%
06:00 +20°C° 0 mm 1 mps 606 mmHg 30%
07:00 +22°C° 0 mm 1 mps 607 mmHg 25%
08:00 +25°C° 0 mm 1 mps 609 mmHg 21%
09:00 +27°C° 0 mm 2 mps 610 mmHg 17%
10:00 +29°C° 0 mm 3 mps 610 mmHg 15%
11:00 +30°C° 0 mm 4 mps 610 mmHg 14%
12:00 +32°C° 0 mm 6 mps 610 mmHg 12%
13:00 +32°C° 0 mm 6 mps 610 mmHg 14%
14:00 +32°C° 0 mm 6 mps 609 mmHg 15%
15:00 +32°C° 0 mm 6 mps 609 mmHg 16%
16:00 +29°C° 0 mm 5 mps 608 mmHg 24%
17:00 +28°C° 0 mm 5 mps 608 mmHg 32%
18:00 +26°C° 0 mm 5 mps 607 mmHg 39%
19:00 +25°C° 0 mm 4 mps 607 mmHg 43%
20:00 +25°C° 0 mm 3 mps 607 mmHg 46%
21:00 +24°C° 0 mm 2 mps 608 mmHg 50%
22:00 +23°C° 0 mm 2 mps 607 mmHg 53%
23:00 +23°C° 0 mm 2 mps 607 mmHg 56%

24 September, Thursday

Time Temperature Precipitation Wind Pressure Humidity
00:00 +21°C° 0 mm 2 mps 607 mmHg 60%
01:00 +20°C° 0 mm 2 mps 606 mmHg 64%
02:00 +21°C° 0 mm 1 mps 606 mmHg 68%
03:00 +20°C° 0 mm 1 mps 605 mmHg 72%
04:00 +20°C° 0 mm 1 mps 606 mmHg 73%
05:00 +20°C° 0 mm 1 mps 606 mmHg 73%
06:00 +19°C° 0 mm 2 mps 606 mmHg 73%
07:00 +20°C° 0 mm 2 mps 607 mmHg 63%
08:00 +23°C° 0 mm 2 mps 608 mmHg 53%
09:00 +25°C° 0 mm 2 mps 609 mmHg 42%
10:00 +26°C° 0 mm 3 mps 609 mmHg 34%
11:00 +28°C° 0 mm 3 mps 610 mmHg 25%
12:00 +29°C° 0 mm 4 mps 610 mmHg 16%
13:00 +30°C° 0 mm 5 mps 610 mmHg 18%
14:00 +30°C° 0 mm 5 mps 609 mmHg 19%
15:00 +30°C° 0 mm 6 mps 609 mmHg 21%
16:00 +28°C° 0 mm 5 mps 609 mmHg 27%
17:00 +27°C° 0 mm 5 mps 608 mmHg 32%
18:00 +26°C° 0 mm 4 mps 608 mmHg 38%
19:00 +25°C° 0 mm 3 mps 608 mmHg 42%
20:00 +24°C° 0 mm 2 mps 608 mmHg 46%
21:00 +24°C° 0 mm 1 mps 608 mmHg 49%
22:00 +23°C° 0 mm 1 mps 608 mmHg 53%
23:00 +22°C° 0 mm 1 mps 607 mmHg 57%

25 September, Friday

Time Temperature Precipitation Wind Pressure Humidity
00:00 +22°C° 0 mm 1 mps 607 mmHg 61%
01:00 +21°C° 0 mm 1 mps 607 mmHg 64%
02:00 +21°C° 0 mm 1 mps 606 mmHg 67%
03:00 +20°C° 0 mm 1 mps 606 mmHg 70%
04:00 +20°C° 0 mm 1 mps 606 mmHg 71%
05:00 +19°C° 0 mm 1 mps 606 mmHg 72%
06:00 +19°C° 0 mm 1 mps 606 mmHg 73%
07:00 +21°C° 0 mm 1 mps 607 mmHg 62%
08:00 +23°C° 0 mm 1 mps 608 mmHg 50%
09:00 +25°C° 0 mm 1 mps 609 mmHg 38%
10:00 +26°C° 0 mm 2 mps 610 mmHg 33%
11:00 +28°C° 0 mm 4 mps 610 mmHg 29%
12:00 +29°C° 0 mm 5 mps 610 mmHg 24%
13:00 +29°C° 0 mm 5 mps 609 mmHg 26%
14:00 +29°C° 0 mm 6 mps 609 mmHg 28%
15:00 +29°C° 0 mm 6 mps 608 mmHg 30%
16:00 +28°C° 0 mm 5 mps 608 mmHg 34%
17:00 +27°C° 0 mm 5 mps 607 mmHg 38%
18:00 +26°C° 0 mm 5 mps 607 mmHg 42%
19:00 +25°C° 0 mm 4 mps 607 mmHg 44%
20:00 +24°C° 0 mm 2 mps 607 mmHg 47%
21:00 +24°C° 0 mm 1 mps 607 mmHg 50%
22:00 +23°C° 0 mm 1 mps 607 mmHg 47%
23:00 +23°C° 0 mm 1 mps 607 mmHg 45%
Show more